FW5940 Weather Reports


Display with metric or nautical units.
time (UTC)temp
F
wind
direction
speed
MPH
gust
MPH
rain 1hr
in
rain 24hr
in
rain mn
in
humidity
%
barometer
mb
20260507005517 48 220 4.0 6.0 0.00 0.26 0.00 86 1010.4
20260507004516 48 229 3.0 7.0 0.00 0.26 0.00 86 1010.4
20260507003515 48 225 3.0 9.0 0.00 0.26 0.00 86 1010.4
20260507002517 49 220 5.0 12.0 0.00 0.26 0.00 86 1010.4
20260507001516 49 215 4.0 9.0 0.00 0.27 0.00 86 1010.5
20260507000517 49 220 5.0 9.0 0.00 0.27 0.00 87 1010.5
20260506235516 49 224 5.0 9.0 0.00 0.27 0.00 87 1010.6
20260506234517 49 222 5.0 9.0 0.00 0.27 0.00 87 1010.5
20260506233518 49 225 4.0 10.0 0.00 0.27 0.00 87 1010.4
20260506232520 49 224 4.0 8.0 0.00 0.27 0.00 86 1010.3
20260506231536 49 216 5.0 9.0 0.00 0.27 0.00 87 1010.4
20260506230515 49 210 5.0 9.0 0.00 0.27 0.00 87 1010.3
20260506225516 49 219 6.0 11.0 0.00 0.27 0.00 87 1010.4
20260506224516 49 214 6.0 11.0 0.00 0.27 0.00 88 1010.5
20260506223537 49 217 6.0 12.0 0.00 0.27 0.00 88 1010.3
20260506222516 49 209 4.0 9.0 0.00 0.27 0.00 88 1010.3
20260506221518 49 221 4.0 11.0 0.00 0.27 0.00 89 1010.3
20260506220516 49 219 5.0 8.0 0.00 0.27 0.00 89 1010.2
20260506215515 49 219 3.0 7.0 0.00 0.27 0.27 89 1010.1
20260506214536 49 203 3.0 7.0 0.00 0.27 0.27 89 1010.0
20260506213516 49 190 3.0 6.0 0.01 0.29 0.27 89 1010.0
20260506212517 49 191 4.0 7.0 0.02 0.31 0.27 89 1010.1
20260506211516 49 187 5.0 11.0 0.02 0.32 0.27 88 1010.1
20260506210555 49 207 4.0 9.0 0.02 0.34 0.27 88 1009.9
20260506205516 49 214 4.0 9.0 0.02 0.39 0.27 88 1009.7
20260506204535 50 221 4.0 9.0 0.02 0.42 0.27 87 1009.6
20260506203517 50 228 5.0 10.0 0.02 0.41 0.26 87 1009.4
20260506202515 50 232 3.0 8.0 0.01 0.40 0.25 87 1009.4
20260506201517 50 234 4.0 10.0 0.02 0.40 0.25 87 1009.2
20260506200516 50 232 5.0 9.0 0.02 0.40 0.25 87 1009.2
20260506195515 50 233 5.0 10.0 0.02 0.40 0.25 87 1009.1
20260506194518 50 237 6.0 10.0 0.02 0.40 0.25 87 1009.0
20260506193515 50 234 7.0 12.0 0.01 0.39 0.24 86 1009.0
20260506192538 50 231 6.0 16.0 0.01 0.39 0.24 86 1009.0
20260506191516 50 237 5.0 11.0 0.00 0.39 0.24 86 1008.9
20260506190558 50 228 8.0 13.0 0.00 0.39 0.24 85 1008.9
20260506185516 51 221 7.0 11.0 0.00 0.39 0.24 85 1008.7
20260506184517 51 228 6.0 12.0 0.00 0.39 0.24 85 1008.4
20260506183516 51 226 6.0 13.0 0.01 0.39 0.24 85 1008.2
20260506182515 51 225 6.0 15.0 0.01 0.39 0.24 86 1007.9
20260506181516 51 227 8.0 17.0 0.02 0.39 0.24 87 1007.7
20260506180515 51 227 7.0 12.0 0.02 0.39 0.24 87 1007.7
20260506175519 52 235 7.0 14.0 0.02 0.39 0.24 87 1007.5
20260506174516 52 228 8.0 14.0 0.02 0.39 0.24 88 1007.4
20260506173517 53 222 10.0 23.0 0.02 0.38 0.23 89 1007.2
20260506172515 54 217 9.0 16.0 0.02 0.38 0.23 90 1006.9
20260506171515 54 213 7.0 11.0 0.01 0.37 0.22 89 1006.3
20260506170516 54 208 5.0 9.0 0.01 0.37 0.22 89 1006.0
20260506165515 54 209 5.0 9.0 0.01 0.37 0.22 89 1005.8
20260506164517 54 206 2.0 6.0 0.00 0.36 0.21 89 1005.5
20260506163517 54 218 3.0 7.0 0.00 0.36 0.21 88 1005.4
20260506162515 54 199 2.0 5.0 0.01 0.36 0.21 87 1005.4
20260506161536 54 228 2.0 7.0 0.09 0.36 0.21 87 1005.4
20260506160517 54 8 4.0 8.0 0.17 0.36 0.21 86 1005.1
20260506155516 54 347 6.0 11.0 0.20 0.36 0.21 86 1005.2
20260506154515 54 346 5.0 12.0 0.20 0.36 0.21 87 1005.2
20260506153517 54 304 6.0 12.0 0.20 0.36 0.21 86 1005.5
20260506152537 54 285 9.0 16.0 0.20 0.35 0.20 85 1006.0
20260506151515 56 245 9.0 18.0 0.12 0.28 0.13 83 1006.3
20260506150516 59 234 11.0 21.0 0.04 0.21 0.05 77 1006.0
20260506145537 62 261 7.0 16.0 0.01 0.20 0.02 73 1004.3
20260506144517 63 299 9.0 15.0 0.00 0.23 0.01 65 1003.5
20260506143516 64 316 6.0 13.0 0.00 0.24 0.01 64 1003.4
20260506142517 65 354 8.0 15.0 0.00 0.27 0.01 63 1003.1
20260506141536 66 342 8.0 12.0 0.00 0.31 0.01 61 1003.5
20260506140517 66 1 7.0 13.0 0.00 0.31 0.01 61 1003.6
20260506135515 67 352 6.0 11.0 0.00 0.31 0.01 60 1003.7
20260506134518 67 359 7.0 13.0 0.00 0.31 0.01 60 1003.6
20260506133516 66 355 7.0 11.0 0.00 0.31 0.01 62 1003.7
20260506132515 65 354 6.0 10.0 0.00 0.31 0.01 62 1003.9
20260506131516 65 352 4.0 9.0 0.00 0.31 0.01 63 1004.1
20260506130515 66 341 6.0 11.0 0.00 0.31 0.01 62 1004.1
20260506125535 67 350 4.0 8.0 0.00 0.31 0.01 59 1004.2
20260506124516 67 69 3.0 7.0 0.00 0.31 0.01 58 1004.4
20260506123517 66 41 4.0 8.0 0.00 0.31 0.01 57 1004.5
20260506122537 66 66 3.0 9.0 0.00 0.31 0.01 59 1004.5
20260506121556 67 64 4.0 10.0 0.00 0.31 0.01 60 1004.5
20260506120537 64 33 6.0 10.0 0.00 0.31 0.01 61 1004.8
20260506115515 64 58 4.0 10.0 0.00 0.31 0.01 61 1004.9
20260506114516 64 53 4.0 8.0 0.00 0.31 0.01 62 1005.0
20260506113517 64 90 3.0 8.0 0.00 0.31 0.01 62 1005.2
20260506112536 64 72 4.0 9.0 0.00 0.31 0.01 62 1005.2
20260506111516 64 20 4.0 10.0 0.00 0.31 0.01 62 1005.3
20260506110517 63 32 3.0 8.0 0.00 0.31 0.01 62 1005.4
20260506105516 64 52 5.0 12.0 0.00 0.31 0.01 62 1005.6
20260506104516 63 63 5.0 10.0 0.00 0.31 0.01 62 1005.8
20260506103517 63 29 4.0 10.0 0.00 0.31 0.01 66 1006.0
20260506102516 63 37 3.0 7.0 0.00 0.31 0.01 66 1006.0
20260506101517 63 23 3.0 8.0 0.00 0.31 0.01 65 1006.2
20260506100537 63 30 2.0 5.0 0.00 0.31 0.01 67 1006.2
20260506095515 62 7 2.0 6.0 0.00 0.31 0.01 67 1006.2
20260506094516 62 350 4.0 8.0 0.00 0.31 0.01 68 1006.2
20260506093517 62 354 2.0 7.0 0.00 0.31 0.01 68 1006.2
20260506092517 62 9 2.0 5.0 0.00 0.31 0.01 67 1006.2
20260506091515 61 319 2.0 6.0 0.00 0.31 0.01 69 1006.2
20260506090518 62 330 3.0 8.0 0.00 0.31 0.01 67 1006.2
20260506085516 61 9 3.0 8.0 0.00 0.31 0.01 69 1006.3
20260506084535 61 8 4.0 8.0 0.00 0.31 0.01 70 1006.3
20260506083517 60 360 2.0 7.0 0.00 0.31 0.01 69 1006.4
20260506082515 60 352 2.0 5.0 0.00 0.31 0.01 68 1006.5
20260506081515 60 332 3.0 7.0 0.00 0.31 0.01 69 1006.6
20260506080536 60 343 3.0 5.0 0.00 0.31 0.01 69 1006.6
20260506073517 59 316 2.0 4.0 0.00 0.31 0.01 70 1006.7
20260506072517 59 22 3.0 5.0 0.00 0.31 0.01 74 1006.9
20260506071515 58 97 1.0 3.0 0.00 0.31 0.01 76 1007.0
20260506070516 57 0.0 0.0 0.00 0.31 0.01 77 1007.0
20260506061517 54 0.0 0.0 0.00 0.31 0.01 89 1007.2
20260506060516 54 0.0 0.0 0.00 0.31 0.01 90 1007.3
20260506050517 49 147 1.0 3.0 0.00 0.31 0.01 92 1007.6
20260506044517 49 146 1.0 2.0 0.00 0.31 0.01 92 1007.3
20260506043517 49 146 1.0 2.0 0.00 0.31 0.01 92 1007.4
20260506042537 49 0.0 0.0 0.00 0.31 0.01 92 1007.6
20260506041517 49 146 0.0 1.0 0.00 0.31 0.01 92 1007.7
20260506040515 49 146 1.0 1.0 0.00 0.31 0.01 91 1007.7
20260506035517 49 0.0 0.0 0.00 0.31 0.01 91 1007.6
20260506034515 49 146 0.0 1.0 0.00 0.31 0.01 91 1007.7
20260506033517 49 0.0 0.0 0.00 0.31 0.01 91 1007.8
20260506032516 49 146 0.0 2.0 0.00 0.31 0.01 91 1007.8
20260506031517 49 146 0.0 1.0 0.00 0.31 0.01 91 1008.0
20260506030516 49 147 1.0 2.0 0.00 0.31 0.01 91 1008.2
20260506025515 49 147 1.0 2.0 0.00 0.31 0.01 91 1008.3
20260506024518 49 147 1.0 3.0 0.00 0.31 0.01 91 1008.3
20260506023515 49 139 2.0 3.0 0.00 0.31 0.01 91 1008.4
20260506022516 49 127 1.0 2.0 0.00 0.31 0.01 91 1008.3
20260506021515 49 128 2.0 4.0 0.00 0.31 0.01 91 1008.2
20260506020518 49 131 1.0 3.0 0.00 0.31 0.01 91 1008.3
20260506015516 49 131 1.0 2.0 0.00 0.31 0.01 91 1008.4
20260506014517 49 130 1.0 2.0 0.00 0.31 0.01 91 1008.3
20260506013517 50 130 2.0 3.0 0.00 0.31 0.01 91 1008.4
20260506012520 50 156 2.0 4.0 0.00 0.31 0.01 91 1008.5
20260506011537 50 170 0.0 1.0 0.01 0.31 0.01 91 1008.6
20260506010516 50 170 1.0 2.0 0.01 0.31 0.01 91 1008.5